THOR ABLESTAR DEB, 123

Orbit data source: Space-Track

THOR ABLESTAR DEB, 123 is space debris in LEO originally from a launch on Thu, 29 Jun 1961 UTC launched from the Air Force Eastern Test Range (AFETR). Debris objects in space refer to the collection of defunct objects orbiting the Earth. Examples of debris include non-operational satellites, rocket bodies, and fragments generated from explosions, collisions, or faulty payload assembly.

Loading next visibility...
Identifier
123, 1961-015H
Orbit
LEO
Last TLE update
1 day ago
Origin
Manufacturer
Unknown
Mission
Spacecraft
Bus & Motor
Unknown
Mass
Unknown
Launch date (UTC)
1961-06-29 (64 years ago)
Launch vehicle
Unknown
Launch site
Air Force Eastern Test Range (AFETR)
Object type
Payload
Rocket body
Debris
Shape & HBR
Unknown
Radar Cross Section
Medium (>0.1 m² and <1 m²)

Expand to show TLE details & history

TLE from 1 day ago
0 THOR ABLESTAR DEB
1 00123U 61015H   25185.62416146  .00000602  00000-0  20204-3 0  9999
2 00123  66.6865 274.6487 0107584 168.8055 191.5481 14.40984485329449
Epoch: 2025-07-04T14:58Z
TLE epoch observation values (Epoch: 2025-07-04T14:58:47.55Z)
Latitude
0.00005°
Longitude
127.07671°
Altitude
832.596 km
Speed
7.398 km/s
True Right ascension
18h 18m 35s
True Declination
0° 00' 00"
Sunlit
Object was in full shadow at epoch
Visualization orbit readout
Latitude
-49.94876°
Longitude
93.48804°
Altitude
828.396 km
Speed
7.409 km/s
Apparent Right ascension
16h 41m 46s
Apparent Declination
-45° 25' 33"
Sunlit
Object is in full shadow
Visualization observer readout
Local Sidereal Time
05:17:20
Azimuth
133.071° SE
Elevation
-81.458°
Doppler factor
1
Orbital elements
Apogee altitude
830.342 km
Perigee altitude
676.889 km
Semi-major axis
7,131.752 km
Eccentricity
0.01076
Inclination
66.6865°
RAAN
274.6487°
Arg. of periapsis
168.8055°
True anomaly
Unknown
Mean anomaly
191.5481°
Eccentric anomaly
Unknown
Mean motion
3.6037 °/min
Orbital period
99.9 mins
BSTAR
0.00020204
Loading maneuver chart data...
Loading SW <> Apogee altitude chart data...

THOR ABLESTAR DEB Visibility forecast

Observer location: undefined°, undefined°

Span
Click to sort rows by Start time (UTC) header in descending order
Start Az.
Max El. time (UTC)
Max El. Az.
Max El.
End time (UTC)
End Az.
8 mins2025-07-06 07:05:59.193Z191.446° SSW2025-07-06 07:09:59.193Z88.277° E41.39°2025-07-06 07:13:59.193Z36.849° NE
6 mins2025-07-06 08:49:59.193Z277.366° WNW2025-07-06 08:52:59.193Z318.588° NNW19.275°2025-07-06 08:55:59.193Z356.415° N
7 mins2025-07-06 15:50:59.193Z355.496° N2025-07-06 15:53:59.193Z58.408° ENE32.726°2025-07-06 15:57:59.193Z122.77° SE
|